• Em Portugal
  • Lista de países
  • Para 7 dias
  • Temperatura da água
  • Mapas de satélite
  • Mapa do tempo
  • Widgets de tempo
  • user-avatar
    Iniciar Sessão

    Previsão horária em Aksaraj

    Hoje, 23 Outubro, Segunda-feira

    Tempo Temperatura Precipitação Vento Pressão Humidade
    00:00 +11°C° 0 mm 0 m/s 676 mmHg 39%
    01:00 +11°C° 0 mm 0 m/s 676 mmHg 40%
    02:00 +11°C° 0 mm 0 m/s 676 mmHg 41%
    03:00 +10°C° 0 mm 0 m/s 675 mmHg 42%
    04:00 +10°C° 0 mm 0 m/s 675 mmHg 43%
    05:00 +11°C° 0 mm 1 m/s 675 mmHg 43%
    06:00 +13°C° 0 mm 1 m/s 676 mmHg 39%
    07:00 +15°C° 0 mm 1 m/s 676 mmHg 34%
    08:00 +16°C° 0 mm 1 m/s 677 mmHg 29%
    09:00 +18°C° 0 mm 2 m/s 677 mmHg 27%
    10:00 +19°C° 0 mm 2 m/s 677 mmHg 24%
    11:00 +21°C° 0 mm 2 m/s 677 mmHg 22%
    12:00 +23°C° 0 mm 2 m/s 677 mmHg 20%
    13:00 +24°C° 0 mm 3 m/s 676 mmHg 19%
    14:00 +24°C° 0 mm 3 m/s 676 mmHg 17%
    15:00 +22°C° 0 mm 3 m/s 676 mmHg 19%
    16:00 +21°C° 0 mm 3 m/s 675 mmHg 22%
    17:00 +19°C° 0 mm 2 m/s 675 mmHg 24%
    18:00 +18°C° 0 mm 3 m/s 675 mmHg 29%
    19:00 +17°C° 0 mm 3 m/s 675 mmHg 35%
    20:00 +16°C° 0 mm 3 m/s 675 mmHg 40%
    21:00 +16°C° 0 mm 3 m/s 675 mmHg 45%
    22:00 +14°C° 0 mm 3 m/s 675 mmHg 49%
    23:00 +14°C° 0 mm 3 m/s 675 mmHg 53%

    Amanhã, 24 Outubro, Terça-feira

    Tempo Temperatura Precipitação Vento Pressão Humidade
    00:00 +13°C° 0 mm 3 m/s 675 mmHg 55%
    01:00 +13°C° 0 mm 3 m/s 674 mmHg 57%
    02:00 +12°C° 0 mm 3 m/s 674 mmHg 60%
    03:00 +12°C° 0 mm 3 m/s 674 mmHg 59%
    04:00 +11°C° 0 mm 3 m/s 674 mmHg 59%
    05:00 +11°C° 0 mm 3 m/s 674 mmHg 59%
    06:00 +12°C° 0 mm 3 m/s 674 mmHg 53%
    07:00 +13°C° 0 mm 3 m/s 675 mmHg 48%
    08:00 +16°C° 0 mm 3 m/s 675 mmHg 42%
    09:00 +18°C° 0 mm 4 m/s 675 mmHg 37%
    10:00 +20°C° 0 mm 5 m/s 676 mmHg 33%
    11:00 +21°C° 0 mm 5 m/s 676 mmHg 28%
    12:00 +22°C° 0 mm 6 m/s 676 mmHg 25%
    13:00 +23°C° 0 mm 6 m/s 676 mmHg 23%
    14:00 +24°C° 0 mm 6 m/s 675 mmHg 21%
    15:00 +22°C° 0 mm 6 m/s 675 mmHg 24%
    16:00 +21°C° 0 mm 5 m/s 675 mmHg 26%
    17:00 +19°C° 0 mm 4 m/s 675 mmHg 29%
    18:00 +18°C° 0 mm 4 m/s 675 mmHg 33%
    19:00 +17°C° 0 mm 4 m/s 675 mmHg 37%
    20:00 +16°C° 0 mm 3 m/s 675 mmHg 40%
    21:00 +14°C° 0 mm 3 m/s 675 mmHg 43%
    22:00 +14°C° 0 mm 3 m/s 676 mmHg 46%
    23:00 +14°C° 0 mm 2 m/s 676 mmHg 48%

    Depois de amanhã, 25 Outubro, Quarta-feira

    Tempo Temperatura Precipitação Vento Pressão Humidade
    00:00 +14°C° 0 mm 2 m/s 676 mmHg 49%
    01:00 +13°C° 0 mm 2 m/s 675 mmHg 50%
    02:00 +13°C° 0 mm 2 m/s 675 mmHg 51%
    03:00 +13°C° 0 mm 2 m/s 675 mmHg 51%
    04:00 +13°C° 0 mm 2 m/s 675 mmHg 51%
    05:00 +13°C° 0 mm 2 m/s 676 mmHg 51%
    06:00 +14°C° 0 mm 2 m/s 676 mmHg 48%
    07:00 +15°C° 0 mm 2 m/s 677 mmHg 44%
    08:00 +16°C° 0 mm 2 m/s 677 mmHg 41%
    09:00 +17°C° 0,2 mm 3 m/s 678 mmHg 41%
    10:00 +18°C° 0,2 mm 3 m/s 678 mmHg 41%
    11:00 +19°C° 0,2 mm 4 m/s 678 mmHg 41%
    12:00 +18°C° 0,3 mm 4 m/s 678 mmHg 44%
    13:00 +18°C° 0,3 mm 3 m/s 678 mmHg 48%
    14:00 +18°C° 0,3 mm 3 m/s 678 mmHg 52%
    15:00 +17°C° 0,2 mm 3 m/s 678 mmHg 55%
    16:00 +17°C° 0,2 mm 3 m/s 678 mmHg 59%
    17:00 +16°C° 0,2 mm 2 m/s 678 mmHg 62%
    18:00 +16°C° 0 mm 2 m/s 678 mmHg 62%
    19:00 +15°C° 0 mm 2 m/s 678 mmHg 62%
    20:00 +15°C° 0 mm 2 m/s 679 mmHg 62%
    21:00 +14°C° 0 mm 2 m/s 679 mmHg 63%
    22:00 +14°C° 0 mm 2 m/s 679 mmHg 64%
    23:00 +13°C° 0 mm 2 m/s 679 mmHg 65%

    26 Outubro, Quinta-feira

    Tempo Temperatura Precipitação Vento Pressão Humidade
    00:00 +13°C° 0,1 mm 2 m/s 679 mmHg 66%
    01:00 +13°C° 0,1 mm 2 m/s 679 mmHg 67%
    02:00 +13°C° 0,1 mm 2 m/s 679 mmHg 68%
    03:00 +13°C° 0,2 mm 1 m/s 679 mmHg 73%
    04:00 +12°C° 0,2 mm 1 m/s 678 mmHg 77%
    05:00 +11°C° 0,2 mm 1 m/s 678 mmHg 82%
    06:00 +12°C° 0 mm 1 m/s 679 mmHg 77%
    07:00 +13°C° 0 mm 2 m/s 680 mmHg 73%
    08:00 +14°C° 0 mm 2 m/s 680 mmHg 68%
    09:00 +15°C° 0 mm 2 m/s 680 mmHg 62%
    10:00 +16°C° 0 mm 3 m/s 680 mmHg 56%
    11:00 +17°C° 0 mm 3 m/s 681 mmHg 50%
    12:00 +17°C° 0 mm 3 m/s 680 mmHg 48%
    13:00 +18°C° 0 mm 3 m/s 680 mmHg 45%
    14:00 +18°C° 0 mm 3 m/s 680 mmHg 42%
    15:00 +17°C° 0 mm 3 m/s 680 mmHg 45%
    16:00 +16°C° 0 mm 2 m/s 680 mmHg 48%
    17:00 +15°C° 0 mm 2 m/s 680 mmHg 51%
    18:00 +15°C° 0 mm 2 m/s 680 mmHg 55%
    19:00 +14°C° 0 mm 1 m/s 680 mmHg 59%
    20:00 +13°C° 0 mm 1 m/s 680 mmHg 63%
    21:00 +13°C° 0 mm 1 m/s 680 mmHg 65%
    22:00 +12°C° 0 mm 1 m/s 680 mmHg 68%
    23:00 +12°C° 0 mm 1 m/s 680 mmHg 71%

    27 Outubro, Sexta-feira

    Tempo Temperatura Precipitação Vento Pressão Humidade
    00:00 +11°C° 0 mm 1 m/s 680 mmHg 74%
    01:00 +11°C° 0 mm 1 m/s 680 mmHg 77%
    02:00 +10°C° 0 mm 1 m/s 680 mmHg 80%
    03:00 +10°C° 0 mm 1 m/s 680 mmHg 82%
    04:00 +10°C° 0 mm 1 m/s 680 mmHg 85%
    05:00 +9°C° 0 mm 1 m/s 679 mmHg 87%
    06:00 +10°C° 0 mm 1 m/s 680 mmHg 82%
    07:00 +11°C° 0 mm 1 m/s 680 mmHg 77%
    08:00 +12°C° 0 mm 1 m/s 680 mmHg 72%
    09:00 +14°C° 0 mm 1 m/s 680 mmHg 65%
    10:00 +15°C° 0 mm 1 m/s 680 mmHg 59%
    11:00 +16°C° 0 mm 1 m/s 680 mmHg 53%
    12:00 +18°C° 0 mm 1 m/s 680 mmHg 50%
    13:00 +18°C° 0 mm 1 m/s 679 mmHg 46%
    14:00 +19°C° 0 mm 1 m/s 679 mmHg 43%
    15:00 +18°C° 0 mm 1 m/s 678 mmHg 46%
    16:00 +16°C° 0 mm 1 m/s 678 mmHg 49%
    17:00 +15°C° 0 mm 1 m/s 678 mmHg 52%
    18:00 +14°C° 0 mm 1 m/s 677 mmHg 56%
    19:00 +14°C° 0 mm 1 m/s 677 mmHg 60%
    20:00 +13°C° 0 mm 1 m/s 677 mmHg 64%
    21:00 +12°C° 0 mm 1 m/s 677 mmHg 64%
    22:00 +12°C° 0 mm 1 m/s 676 mmHg 64%
    23:00 +12°C° 0 mm 1 m/s 676 mmHg 64%

    28 Outubro, Sábado

    Tempo Temperatura Precipitação Vento Pressão Humidade
    00:00 +12°C° 0 mm 1 m/s 676 mmHg 63%
    01:00 +11°C° 0 mm 1 m/s 676 mmHg 61%
    02:00 +11°C° 0 mm 1 m/s 675 mmHg 59%
    03:00 +11°C° 0 mm 1 m/s 675 mmHg 57%
    04:00 +10°C° 0 mm 2 m/s 675 mmHg 56%
    05:00 +9°C° 0 mm 2 m/s 675 mmHg 54%
    06:00 +12°C° 0 mm 2 m/s 675 mmHg 49%
    07:00 +13°C° 0 mm 2 m/s 676 mmHg 44%
    08:00 +14°C° 0 mm 2 m/s 676 mmHg 39%
    09:00 +16°C° 0 mm 3 m/s 676 mmHg 35%
    10:00 +17°C° 0 mm 3 m/s 676 mmHg 30%
    11:00 +19°C° 0 mm 4 m/s 676 mmHg 26%
    12:00 +19°C° 0 mm 4 m/s 676 mmHg 25%
    13:00 +19°C° 0 mm 5 m/s 675 mmHg 24%
    14:00 +20°C° 0 mm 5 m/s 675 mmHg 23%
    15:00 +19°C° 0 mm 4 m/s 675 mmHg 25%
    16:00 +18°C° 0 mm 3 m/s 675 mmHg 27%
    17:00 +16°C° 0 mm 3 m/s 674 mmHg 29%
    18:00 +16°C° 0 mm 3 m/s 675 mmHg 32%
    19:00 +14°C° 0 mm 3 m/s 675 mmHg 34%
    20:00 +13°C° 0 mm 3 m/s 675 mmHg 36%
    21:00 +13°C° 0 mm 3 m/s 675 mmHg 39%
    22:00 +12°C° 0 mm 3 m/s 675 mmHg 42%
    23:00 +12°C° 0 mm 3 m/s 675 mmHg 45%

    29 Outubro, Domingo

    Tempo Temperatura Precipitação Vento Pressão Humidade
    00:00 +11°C° 0 mm 3 m/s 675 mmHg 46%
    01:00 +11°C° 0 mm 3 m/s 674 mmHg 48%
    02:00 +10°C° 0 mm 3 m/s 674 mmHg 50%
    03:00 +10°C° 0 mm 3 m/s 674 mmHg 51%
    04:00 +10°C° 0 mm 3 m/s 674 mmHg 53%
    05:00 +9°C° 0 mm 3 m/s 674 mmHg 54%
    06:00 +10°C° 0 mm 3 m/s 675 mmHg 51%
    07:00 +11°C° 0 mm 3 m/s 675 mmHg 48%
    08:00 +13°C° 0 mm 4 m/s 676 mmHg 45%
    09:00 +14°C° 0 mm 5 m/s 676 mmHg 40%
    10:00 +16°C° 0 mm 6 m/s 676 mmHg 35%
    11:00 +18°C° 0 mm 7 m/s 677 mmHg 30%
    12:00 +20°C° 0 mm 7 m/s 676 mmHg 31%
    13:00 +20°C° 0 mm 8 m/s 676 mmHg 32%
    14:00 +21°C° 0 mm 8 m/s 675 mmHg 33%
    15:00 +20°C° 0 mm 8 m/s 675 mmHg 39%
    16:00 +18°C° 0 mm 7 m/s 675 mmHg 44%
    17:00 +17°C° 0 mm 7 m/s 675 mmHg 50%
    18:00 +16°C° 0 mm 7 m/s 675 mmHg 53%
    19:00 +15°C° 0 mm 7 m/s 675 mmHg 57%
    20:00 +15°C° 0 mm 7 m/s 675 mmHg 60%
    21:00 +14°C° 0 mm 6 m/s 675 mmHg 62%
    22:00 +14°C° 0 mm 6 m/s 674 mmHg 64%
    23:00 +13°C° 0 mm 6 m/s 674 mmHg 66%
    Mostrar mais